Flag for Russia Weather past 2 weeks in Sochi, Russia

Now
72 °F

Overcast.


Feels Like: 77 °F
Forecast: 60 / 71 °F
Wind: 3 mph from Southeast

Location: Adler


UV Index: 5 (Moderate)

Visibility: N/A


Pressure: 29.92 "Hg

Humidity: 50%

Dew point: 52 °F

Location of SochiLocation

Historic Weather in Sochi

°F

Sochi temperature yesterday

Maximum temperature yesterday: 81 °F (at 1:00 PM)
Minimum temperature yesterday: 63 °F (at 3:30 AM)
Average temperature yesterday: 69 °F

Past Weeks' High & Low Weather Summary

 TemperatureHumidityPressure
High81 °F (Apr 18, 1:00 PM)94% (Apr 9, 12:30 AM)30.21 "Hg (Apr 9, 12:30 AM)
Low43 °F (Apr 4, 11:30 PM)26% (Apr 18, 1:00 PM)29.71 "Hg (Apr 18, 6:30 AM)
Average57 °F68%29.97 "Hg
* Reported Apr 4 10:00 AM — Apr 19 10:30 AM, Sochi, Weather by CustomWeather, © 2014

Note: Actual official high and low records may vary slightly from our data, if they occured in-between our weather recording intervals... More about our weather records

Advertising

Historic Weather Conditions — Data for Previous 24 hours

 ConditionsComfort  
Time TempWeatherWind HumidityBarometerVisibility
10:30 AM
Apr 19
72 °FOvercast.6 mph47%29.92 "HgN/A
10:00 AM73 °FOvercast.3 mph44%29.92 "HgN/A
9:30 AM70 °FPartly sunny.6 mph53%29.92 "HgN/A
9:00 AM68 °FPartly sunny.8 mph53%29.89 "HgN/A
8:30 AM66 °FPartly sunny.13 mph56%29.89 "HgN/A
8:00 AM64 °FMore clouds than sun.10 mph56%29.89 "Hg6 mi
7:30 AM63 °FMostly cloudy.13 mph64%29.89 "HgN/A
7:00 AM61 °FMostly cloudy.10 mph68%29.89 "HgN/A
6:30 AM61 °FOvercast.6 mph72%29.89 "HgN/A
6:00 AM61 °FPassing clouds.8 mph72%29.86 "HgN/A
5:30 AM63 °FPassing clouds.8 mph68%29.86 "HgN/A
5:00 AM63 °FPassing clouds.6 mph68%29.86 "HgN/A
4:30 AM63 °FPassing clouds.8 mph64%29.86 "Hg6 mi
4:00 AM63 °FPassing clouds.8 mph64%29.83 "HgN/A
3:30 AM63 °FPassing clouds.6 mph68%29.86 "HgN/A
3:00 AM61 °FPassing clouds.8 mph72%29.83 "HgN/A
2:30 AM61 °FPassing clouds.8 mph72%29.86 "HgN/A
2:00 AM59 °FPassing clouds.1 mph82%29.86 "HgN/A
1:30 AM61 °FPassing clouds.1 mph77%29.86 "HgN/A
1:00 AM63 °FPassing clouds.1 mph68%29.83 "HgN/A
12:30 AM63 °FPassing clouds.3 mph68%29.83 "HgN/A
12:00 AM64 °FPassing clouds.8 mph68%29.80 "HgN/A
11:30 PM
Apr 18
64 °FPassing clouds.6 mph68%29.80 "HgN/A
11:00 PM63 °FPassing clouds.3 mph73%29.80 "HgN/A
10:30 PM64 °FPassing clouds.3 mph68%29.80 "HgN/A
10:00 PM66 °FPassing clouds.3 mph64%29.77 "HgN/A
9:30 PM66 °FPassing clouds.3 mph64%29.77 "HgN/A
9:00 PM66 °FPartly sunny.1 mph64%29.77 "HgN/A
8:30 PM66 °FPartly sunny.3 mph64%29.74 "HgN/A
8:00 PM70 °FPartly sunny.No wind53%29.74 "HgN/A
7:30 PM72 °FScattered clouds.1 mph47%29.74 "HgN/A
7:00 PM72 °FScattered clouds.1 mph47%29.74 "HgN/A
6:30 PM73 °FPassing clouds.6 mph44%29.74 "HgN/A
6:00 PM73 °FScattered clouds.3 mph44%29.74 "HgN/A
5:30 PM73 °FScattered clouds.3 mph44%29.74 "HgN/A
5:00 PM73 °FScattered clouds.6 mph44%29.74 "HgN/A
4:30 PM75 °FScattered clouds.6 mph41%29.74 "HgN/A
4:00 PM75 °FPartly sunny.3 mph41%29.74 "HgN/A
3:30 PM75 °FPartly sunny.6 mph39%29.74 "HgN/A
3:00 PM75 °FPartly sunny.3 mph39%29.74 "HgN/A
2:30 PM75 °FPartly sunny.8 mph36%29.74 "HgN/A
2:00 PM77 °FPartly sunny.6 mph32%29.74 "HgN/A
1:30 PM79 °FPartly sunny.6 mph30%29.74 "HgN/A
1:00 PM81 °FPartly sunny.6 mph26%29.74 "HgN/A
12:30 PM79 °FPartly sunny.6 mph28%29.74 "Hg6 mi
12:00 PM79 °FOvercast.3 mph30%29.74 "HgN/A
11:30 AM77 °FOvercast.1 mph30%29.77 "HgN/A
11:00 AM77 °FPartly sunny.No wind34%29.77 "HgN/A
Weather by CustomWeather, © 2014

See weather overview